Regional Weather Roundup
Issued by NWS

Home | Current Version | Previous Version | Graphics & Text | Print | Product List | Glossary On
Versions: 1 2 3 4 5 6 7 8 9 10 11 12 13 14 15 16 17 18 19 20 21 22 23 24 25 26 27 28 29 30 31 32 33 34 35 36 37 38 39 40 41 42 43 44 45 46 47 48 49 50
000
ASUS43 KLSX 162107
RWRMO

WEATHER SUMMARY FOR MISSOURI
NATIONAL WEATHER SERVICE SPRINGFIELD MO
400 PM CDT WED AUG 16 2017

NOTE: "FAIR" INDICATES FEW OR NO CLOUDS BELOW 12,000 FEET WITH NO
       SIGNIFICANT WEATHER AND/OR OBSTRUCTIONS TO VISIBILITY.
       CURRENT SKY AND/OR WEATHER CONDITIONS ARE NOT AVAILABLE FOR
       CHILLICOTHE AND FARMINGTON.

MOZ001>031-035>038-043-044-053-054-162200-
...NORTHERN AND WESTERN MISSOURI...

CITY           SKY/WX    TMP DP  RH WIND       PRES   REMARKS
KANSAS CTY INT PTSUNNY   84  73  69 SW10      29.81S HX  90
KANSAS C DTWN  PTSUNNY   87  74  64 W8        29.79S HX  95
LEE`S SUMMIT   CLOUDY    84  74  71 S13       29.82S HX  91
ST JOSEPH      CLOUDY    83  70  64 SW8       29.79S
CHILLICOTHE      N/A     86  74  67 VRB7      29.80S HX  94
KIRKSVILLE     CLOUDY    82  74  76 S13G24    29.83F

$$
MOZ066>068-077>081-088>096-101>105-162200-
...SOUTHWEST MISSOURI...

CITY           SKY/WX    TMP DP  RH WIND       PRES   REMARKS
SPRINGFIELD    LGT RAIN  74  73  97 SE6       29.92F
JOPLIN         MOSUNNY   87  77  72 S21G29    29.86F HX  99
BRANSON        PTSUNNY   84  72  65 SW9       29.94S

$$
MOZ032>034-039>042-045>050-055>058-069>072-162200-
...CENTRAL MISSOURI...

CITY           SKY/WX    TMP DP  RH WIND       PRES   REMARKS
COLUMBIA       TSTM      70  69  97 S10       29.88R
JEFFERSON CITY TSTM      71  71 100 SE8       29.88F FOG
ROLLA          RAIN      73  72  96 NW15G26   29.95R FOG
SEDALIA        CLOUDY    76  75  97 S12       29.86S
WHITEMAN AFB   MOSUNNY   81  80  98 S16       29.83S HX  92
WARRENSBURG    MOSUNNY   81  70  69 S8        29.83S
OSAGE BEACH    RAIN      70  69  97 SE8       29.92S

$$
MOZ051-052-059>065-162200-
...EAST CENTRAL MISSOURI...

CITY           SKY/WX    TMP DP  RH WIND       PRES   REMARKS
ST LOUIS INTL  TSTM      76  73  91 SE10      29.89R
SPIRIT OF STL  CLOUDY    79  74  84 NE6       29.86F
ST CHARLES     TSTM      81  75  82 S31G45    29.87R VSB 1

$$
MOZ072>076-082>087-097>100-106>115-162200-
...SOUTH CENTRAL AND SOUTHEAST MISSOURI...

CITY           SKY/WX    TMP DP  RH WIND       PRES   REMARKS
CAPE GIRARDEAU MOSUNNY   86  76  71 S8        29.92R HX  96
FARMINGTON     HVY RAIN  74  72  93 S6        29.96R FOG
POPLAR BLUFF   PTSUNNY   85  77  77 SW10      29.93R HX  95
WEST PLAINS    CLOUDY    84  76  76 SE5       29.94F HX  93

$$



USA.gov is the U.S. government's official web portal to all federal, state and local government web resources and services.